| time (UTC) | temp F | wind direction | speed knots | gust knots | rain 1hr in | rain 24hr in | rain mn in | humidity % | barometer mb |
| 20260906193518 | 73 | 232 | 0.9 | 6.1 | 0.00 | 0.00 | 0.00 | 82 | 1019.0 |
| 20260906193034 | 73 | 226 | 1.7 | 7.8 | 0.00 | 0.00 | 0.00 | 83 | 1018.6 |
| 20260906192519 | 73 | 228 | 1.7 | 7.8 | 0.00 | 0.00 | 0.00 | 82 | 1018.4 |
| 20260906192017 | 73 | 251 | 3.5 | 9.6 | 0.00 | 0.00 | 0.00 | 82 | 1018.2 |
| 20260906191532 | 74 | 215 | 3.5 | 9.6 | 0.00 | 0.00 | 0.00 | 80 | 1018.2 |
| 20260906191016 | 74 | 221 | 1.7 | 8.7 | 0.00 | 0.00 | 0.00 | 80 | 1017.9 |
| 20260906190512 | 74 | 131 | 2.6 | 13.0 | 0.00 | 0.00 | 0.00 | 79 | 1017.8 |
| 20260906190029 | 76 | 211 | 4.3 | 13.0 | 0.00 | 0.00 | 0.00 | 76 | 1017.6 |
| 20260906185513 | 78 | 193 | 2.6 | 14.8 | 0.00 | 0.00 | 0.00 | 74 | 1017.4 |
| 20260906185014 | 81 | 205 | 4.3 | 14.8 | 0.00 | 0.00 | 0.00 | 72 | 1016.9 |
| 20260906184523 | 83 | 199 | 0.0 | 2.6 | 0.00 | 0.00 | 0.00 | 77 | 1016.6 |
| 20260906184005 | 83 | 234 | 0.9 | 2.6 | 0.00 | 0.00 | 0.00 | 77 | 1016.7 |
| 20260906183505 | 82 | 241 | 0.0 | 1.7 | 0.00 | 0.00 | 0.00 | 78 | 1016.6 |
| 20260906183007 | 82 | 214 | 0.0 | 2.6 | 0.00 | 0.00 | 0.00 | 80 | 1016.8 |
| 20260906182507 | 82 | 214 | 0.0 | 2.6 | 0.00 | 0.00 | 0.00 | 80 | 1017.0 |
| 20260906182011 | 81 | 330 | 0.0 | 2.6 | 0.00 | 0.00 | 0.00 | 82 | 1017.0 |
| 20260906181533 | 81 | 330 | 0.0 | 4.3 | 0.00 | 0.00 | 0.00 | 83 | 1016.9 |
| 20260906181011 | 81 | 226 | 0.0 | 5.2 | 0.00 | 0.00 | 0.00 | 84 | 1016.8 |
| 20260906180512 | 81 | 271 | 0.9 | 5.2 | 0.00 | 0.00 | 0.00 | 84 | 1016.8 |
| 20260906180020 | 80 | 276 | 0.9 | 7.0 | 0.00 | 0.00 | 0.00 | 84 | 1016.7 |
| 20260906175512 | 80 | 305 | 0.9 | 7.0 | 0.00 | 0.00 | 0.00 | 84 | 1016.7 |
| 20260906175015 | 80 | 309 | 0.9 | 5.2 | 0.00 | 0.00 | 0.00 | 84 | 1016.8 |
| 20260906174523 | 80 | 4 | 0.9 | 4.3 | 0.00 | 0.00 | 0.00 | 85 | 1017.0 |
| 20260906174016 | 80 | 232 | 0.0 | 4.3 | 0.00 | 0.00 | 0.00 | 85 | 1017.2 |
| 20260906173516 | 79 | 279 | 0.0 | 6.1 | 0.00 | 0.00 | 0.00 | 85 | 1017.3 |
| 20260906173006 | 79 | 279 | 0.0 | 6.1 | 0.00 | 0.00 | 0.00 | 85 | 1017.5 |
| 20260906172506 | 80 | 217 | 0.0 | 4.3 | 0.00 | 0.00 | 0.00 | 84 | 1017.5 |
| 20260906172006 | 80 | 251 | 0.0 | 2.6 | 0.00 | 0.00 | 0.00 | 84 | 1017.5 |
| 20260906171513 | 80 | 251 | 0.0 | 2.6 | 0.00 | 0.00 | 0.00 | 84 | 1017.3 |
| 20260906171009 | 80 | 275 | 0.0 | 3.5 | 0.00 | 0.00 | 0.00 | 84 | 1017.6 |
| 20260906170510 | 80 | 227 | 0.9 | 3.5 | 0.00 | 0.00 | 0.00 | 84 | 1017.7 |
| 20260906170018 | 80 | 207 | 0.0 | 4.3 | 0.00 | 0.00 | 0.00 | 84 | 1017.8 |
| 20260906165515 | 80 | 210 | 0.0 | 4.3 | 0.00 | 0.00 | 0.00 | 84 | 1017.7 |
| 20260906165012 | 80 | 289 | 0.0 | 2.6 | 0.00 | 0.00 | 0.00 | 84 | 1017.8 |
| 20260906164527 | 80 | 274 | 0.0 | 7.0 | 0.00 | 0.00 | 0.00 | 84 | 1017.8 |
| 20260906164014 | 80 | 214 | 2.6 | 7.0 | 0.00 | 0.00 | 0.00 | 84 | 1017.3 |
| 20260906163515 | 80 | 226 | 0.9 | 5.2 | 0.00 | 0.00 | 0.00 | 83 | 1017.4 |
| 20260906163042 | 80 | 332 | 0.0 | 7.8 | 0.00 | 0.00 | 0.00 | 83 | 1017.5 |
| 20260906162516 | 80 | 223 | 1.7 | 7.8 | 0.00 | 0.00 | 0.00 | 83 | 1017.0 |
| 20260906162015 | 80 | 203 | 3.5 | 7.0 | 0.00 | 0.00 | 0.00 | 83 | 1016.7 |
| 20260906161506 | 80 | 197 | 1.7 | 7.0 | 0.00 | 0.00 | 0.00 | 83 | 1016.4 |
| 20260906161009 | 80 | 234 | 1.7 | 7.0 | 0.00 | 0.00 | 0.00 | 83 | 1016.3 |
| 20260906160508 | 80 | 224 | 3.5 | 6.1 | 0.00 | 0.00 | 0.00 | 83 | 1016.3 |
| 20260906160016 | 80 | 137 | 1.7 | 5.2 | 0.00 | 0.00 | 0.00 | 83 | 1016.3 |
| 20260906155511 | 80 | 222 | 1.7 | 3.5 | 0.00 | 0.00 | 0.00 | 84 | 1016.2 |
| 20260906155011 | 80 | 234 | 0.0 | 2.6 | 0.00 | 0.00 | 0.00 | 84 | 1016.0 |
| 20260906154521 | 80 | 234 | 0.0 | 4.3 | 0.00 | 0.00 | 0.00 | 85 | 1016.0 |
| 20260906154013 | 79 | 236 | 0.0 | 5.2 | 0.00 | 0.00 | 0.00 | 85 | 1016.2 |
| 20260906153514 | 79 | 201 | 1.7 | 6.1 | 0.00 | 0.00 | 0.00 | 86 | 1016.2 |
| 20260906153027 | 79 | 217 | 1.7 | 6.1 | 0.00 | 0.00 | 0.00 | 86 | 1016.2 |
| 20260906152517 | 79 | 224 | 1.7 | 6.1 | 0.00 | 0.00 | 0.00 | 87 | 1016.2 |
| 20260906152016 | 79 | 195 | 2.6 | 7.8 | 0.00 | 0.00 | 0.00 | 87 | 1016.2 |
| 20260906151525 | 78 | 191 | 2.6 | 7.8 | 0.00 | 0.00 | 0.00 | 88 | 1016.2 |
| 20260906151021 | 78 | 235 | 0.9 | 6.1 | 0.00 | 0.00 | 0.00 | 88 | 1016.3 |
| 20260906150508 | 78 | 182 | 1.7 | 7.0 | 0.00 | 0.00 | 0.00 | 88 | 1016.3 |
| 20260906150016 | 78 | 200 | 3.5 | 7.0 | 0.00 | 0.00 | 0.00 | 89 | 1016.3 |
| 20260906145509 | 78 | 208 | 2.6 | 7.0 | 0.00 | 0.00 | 0.00 | 89 | 1016.5 |
| 20260906145008 | 77 | 223 | 1.7 | 7.0 | 0.00 | 0.00 | 0.00 | 89 | 1016.5 |
| 20260906144520 | 77 | 219 | 2.6 | 7.8 | 0.00 | 0.00 | 0.00 | 89 | 1016.5 |
| 20260906144010 | 77 | 176 | 2.6 | 7.8 | 0.00 | 0.00 | 0.00 | 90 | 1016.6 |
| 20260906143514 | 77 | 202 | 1.7 | 7.0 | 0.00 | 0.00 | 0.00 | 90 | 1016.5 |
| 20260906143026 | 77 | 231 | 0.9 | 6.1 | 0.00 | 0.00 | 0.00 | 90 | 1016.4 |
| 20260906142517 | 77 | 224 | 1.7 | 6.1 | 0.00 | 0.00 | 0.00 | 90 | 1016.5 |
| 20260906142021 | 77 | 226 | 1.7 | 6.1 | 0.00 | 0.00 | 0.00 | 90 | 1016.3 |
| 20260906141530 | 77 | 224 | 0.9 | 3.5 | 0.00 | 0.00 | 0.00 | 90 | 1016.2 |
| 20260906141016 | 76 | 215 | 0.0 | 3.5 | 0.00 | 0.00 | 0.00 | 90 | 1016.2 |
| 20260906140517 | 76 | 224 | 0.0 | 6.1 | 0.00 | 0.00 | 0.00 | 90 | 1016.2 |
| 20260906140036 | 76 | 200 | 1.7 | 6.1 | 0.00 | 0.00 | 0.00 | 91 | 1016.2 |
| 20260906135508 | 76 | 226 | 0.9 | 6.1 | 0.00 | 0.00 | 0.00 | 91 | 1016.1 |
| 20260906135007 | 76 | 232 | 0.0 | 4.3 | 0.00 | 0.00 | 0.00 | 91 | 1015.9 |
| 20260906134515 | 76 | 171 | 0.9 | 6.1 | 0.00 | 0.00 | 0.00 | 91 | 1016.0 |
| 20260906134010 | 76 | 206 | 0.0 | 6.1 | 0.00 | 0.00 | 0.00 | 91 | 1015.9 |
| 20260906133513 | 76 | 243 | 0.0 | 4.3 | 0.00 | 0.00 | 0.00 | 91 | 1015.9 |
| 20260906133018 | 76 | 237 | 0.0 | 5.2 | 0.00 | 0.00 | 0.00 | 91 | 1015.8 |
| 20260906132513 | 76 | 165 | 0.0 | 5.2 | 0.00 | 0.02 | 0.00 | 91 | 1015.8 |
| 20260906132013 | 76 | 129 | 0.0 | 2.6 | 0.00 | 0.03 | 0.00 | 91 | 1015.7 |
| 20260906131528 | 76 | 185 | 0.0 | 3.5 | 0.00 | 0.05 | 0.00 | 91 | 1015.7 |
| 20260906131017 | 76 | 215 | 0.0 | 4.3 | 0.00 | 0.06 | 0.00 | 91 | 1015.7 |
| 20260906130503 | 76 | 226 | 0.0 | 4.3 | 0.00 | 0.06 | 0.00 | 91 | 1015.7 |
| 20260906130014 | 76 | 215 | 0.9 | 4.3 | 0.00 | 0.06 | 0.00 | 91 | 1015.6 |
| 20260906125504 | 76 | 142 | 0.9 | 6.1 | 0.00 | 0.07 | 0.00 | 91 | 1015.6 |
| 20260906125005 | 76 | 174 | 1.7 | 6.1 | 0.00 | 0.07 | 0.00 | 91 | 1015.5 |
| 20260906124516 | 76 | 229 | 0.9 | 7.0 | 0.00 | 0.08 | 0.00 | 91 | 1015.5 |
| 20260906124011 | 76 | 212 | 0.9 | 7.0 | 0.00 | 0.09 | 0.00 | 91 | 1015.4 |
| 20260906123511 | 76 | 235 | 0.0 | 6.1 | 0.00 | 0.11 | 0.00 | 91 | 1015.4 |
| 20260906123033 | 76 | 197 | 0.9 | 6.1 | 0.00 | 0.12 | 0.00 | 91 | 1015.3 |
| 20260906122511 | 76 | 230 | 0.0 | 3.5 | 0.00 | 0.13 | 0.00 | 91 | 1015.4 |
| 20260906122013 | 76 | 225 | 0.0 | 2.6 | 0.00 | 0.15 | 0.00 | 91 | 1015.3 |
| 20260906121525 | 76 | 228 | 0.0 | 2.6 | 0.00 | 0.17 | 0.00 | 91 | 1015.4 |
| 20260906121013 | 75 | 212 | 0.0 | 3.5 | 0.00 | 0.21 | 0.00 | 91 | 1015.4 |
| 20260906120516 | 76 | 220 | 0.0 | 7.0 | 0.00 | 0.22 | 0.00 | 91 | 1015.4 |
| 20260906120028 | 76 | 222 | 0.0 | 7.0 | 0.00 | 0.24 | 0.00 | 91 | 1015.3 |
| 20260906115504 | 76 | 233 | 1.7 | 4.3 | 0.00 | 0.26 | 0.00 | 91 | 1015.1 |
| 20260906115004 | 76 | 187 | 0.9 | 4.3 | 0.00 | 0.26 | 0.00 | 91 | 1015.1 |
| 20260906114511 | 76 | 249 | 0.0 | 4.3 | 0.00 | 0.27 | 0.00 | 91 | 1015.2 |
| 20260906114006 | 76 | 225 | 0.0 | 1.7 | 0.00 | 0.28 | 0.00 | 91 | 1015.2 |
| 20260906113509 | 76 | 233 | 0.0 | 2.6 | 0.00 | 0.28 | 0.00 | 91 | 1015.2 |
| 20260906113016 | 76 | 236 | 0.0 | 3.5 | 0.00 | 0.29 | 0.00 | 90 | 1015.1 |
| 20260906112509 | 76 | 195 | 0.0 | 3.5 | 0.00 | 0.32 | 0.00 | 90 | 1015.1 |
| 20260906112011 | 76 | 234 | 0.0 | 4.3 | 0.00 | 0.34 | 0.00 | 90 | 1015.0 |
| 20260906111522 | 76 | 212 | 0.0 | 6.1 | 0.00 | 0.36 | 0.00 | 90 | 1015.0 |
| 20260906111014 | 76 | 203 | 0.0 | 6.1 | 0.00 | 0.36 | 0.00 | 90 | 1014.9 |
| 20260906110512 | 76 | 232 | 0.0 | 3.5 | 0.00 | 0.36 | 0.00 | 90 | 1014.9 |
| 20260906110027 | 76 | 227 | 0.0 | 6.1 | 0.00 | 0.36 | 0.00 | 90 | 1014.7 |
| 20260906105514 | 76 | 239 | 0.0 | 6.1 | 0.00 | 0.36 | 0.00 | 90 | 1014.7 |
| 20260906105016 | 76 | 251 | 0.0 | 5.2 | 0.00 | 0.37 | 0.00 | 90 | 1014.7 |
| 20260906104508 | 76 | 167 | 0.0 | 3.5 | 0.00 | 0.37 | 0.00 | 90 | 1014.7 |
| 20260906104006 | 76 | 184 | 0.0 | 3.5 | 0.00 | 0.37 | 0.00 | 90 | 1014.7 |
| 20260906103508 | 76 | 156 | 0.0 | 5.2 | 0.00 | 0.37 | 0.00 | 90 | 1014.7 |
| 20260906103012 | 76 | 162 | 0.0 | 5.2 | 0.00 | 0.37 | 0.00 | 90 | 1014.7 |
| 20260906102511 | 76 | 226 | 0.0 | 6.1 | 0.00 | 0.37 | 0.00 | 90 | 1014.7 |
| 20260906102013 | 76 | 195 | 0.9 | 6.1 | 0.00 | 0.37 | 0.00 | 90 | 1014.7 |
| 20260906101519 | 76 | 235 | 0.0 | 3.5 | 0.00 | 0.37 | 0.00 | 90 | 1014.6 |
| 20260906101013 | 76 | 218 | 0.0 | 5.2 | 0.00 | 0.38 | 0.00 | 90 | 1014.5 |
| 20260906100516 | 76 | 230 | 0.0 | 5.2 | 0.00 | 0.38 | 0.00 | 90 | 1014.5 |
| 20260906100025 | 76 | 222 | 0.0 | 3.5 | 0.00 | 0.38 | 0.00 | 90 | 1014.6 |
| 20260906095516 | 76 | 235 | 0.9 | 3.5 | 0.00 | 0.38 | 0.00 | 90 | 1014.6 |
| 20260906095014 | 76 | 213 | 0.0 | 5.2 | 0.00 | 0.38 | 0.00 | 89 | 1014.6 |
| 20260906094531 | 76 | 222 | 0.0 | 6.1 | 0.00 | 0.38 | 0.00 | 89 | 1014.6 |
| 20260906094018 | 76 | 239 | 0.9 | 6.1 | 0.00 | 0.38 | 0.00 | 89 | 1014.6 |
| 20260906093519 | 76 | 200 | 0.0 | 3.5 | 0.00 | 0.38 | 0.00 | 89 | 1014.7 |
| 20260906093022 | 76 | 195 | 0.0 | 3.5 | 0.00 | 0.38 | 0.00 | 89 | 1014.7 |
| 20260906092507 | 76 | 217 | 0.9 | 4.3 | 0.00 | 0.38 | 0.00 | 89 | 1014.9 |
| 20260906092016 | 76 | 230 | 0.9 | 5.2 | 0.00 | 0.38 | 0.00 | 89 | 1014.9 |
| 20260906091521 | 76 | 226 | 0.9 | 5.2 | 0.00 | 0.38 | 0.00 | 89 | 1015.0 |
| 20260906091012 | 76 | 212 | 0.9 | 7.0 | 0.00 | 0.38 | 0.00 | 89 | 1015.1 |
| 20260906090512 | 77 | 228 | 1.7 | 7.0 | 0.00 | 0.38 | 0.00 | 89 | 1015.1 |
| 20260906090023 | 77 | 230 | 1.7 | 6.1 | 0.00 | 0.38 | 0.00 | 89 | 1015.0 |
| 20260906085514 | 77 | 232 | 1.7 | 5.2 | 0.00 | 0.38 | 0.00 | 89 | 1015.1 |
| 20260906085017 | 77 | 237 | 1.7 | 4.3 | 0.00 | 0.38 | 0.00 | 89 | 1015.2 |
| 20260906084530 | 77 | 224 | 0.0 | 7.0 | 0.00 | 0.38 | 0.00 | 89 | 1015.3 |
| 20260906084014 | 77 | 230 | 1.7 | 7.0 | 0.00 | 0.38 | 0.00 | 89 | 1015.3 |
| 20260906083515 | 77 | 207 | 1.7 | 7.8 | 0.00 | 0.38 | 0.00 | 88 | 1015.2 |
| 20260906083031 | 77 | 228 | 1.7 | 7.8 | 0.00 | 0.39 | 0.00 | 88 | 1015.1 |
| 20260906082518 | 77 | 227 | 2.6 | 7.8 | 0.00 | 0.39 | 0.00 | 88 | 1015.0 |
| 20260906082009 | 77 | 220 | 3.5 | 7.8 | 0.00 | 0.39 | 0.00 | 88 | 1014.9 |
| 20260906081521 | 77 | 210 | 2.6 | 7.0 | 0.00 | 0.39 | 0.00 | 88 | 1014.8 |
| 20260906081010 | 77 | 230 | 2.6 | 7.0 | 0.00 | 0.39 | 0.00 | 88 | 1014.7 |
| 20260906080511 | 77 | 228 | 2.6 | 7.0 | 0.00 | 0.39 | 0.00 | 88 | 1014.6 |
| 20260906080020 | 77 | 215 | 2.6 | 8.7 | 0.00 | 0.39 | 0.00 | 88 | 1014.6 |
| 20260906075514 | 77 | 211 | 2.6 | 8.7 | 0.00 | 0.39 | 0.00 | 88 | 1014.5 |
| 20260906075012 | 77 | 220 | 2.6 | 7.8 | 0.00 | 0.39 | 0.00 | 88 | 1014.6 |
| 20260906074526 | 77 | 216 | 2.6 | 7.8 | 0.00 | 0.39 | 0.00 | 88 | 1014.5 |
| 20260906074013 | 77 | 224 | 1.7 | 7.0 | 0.00 | 0.39 | 0.00 | 88 | 1014.5 |
| 20260906073513 | 77 | 263 | 2.6 | 7.0 | 0.00 | 0.39 | 0.00 | 88 | 1014.6 |
| 20260906073046 | 77 | 223 | 2.6 | 8.7 | 0.00 | 0.39 | 0.00 | 88 | 1014.7 |
| 20260906072515 | 77 | 220 | 3.5 | 8.7 | 0.00 | 0.39 | 0.00 | 88 | 1014.7 |
| 20260906072018 | 77 | 202 | 4.3 | 11.3 | 0.00 | 0.39 | 0.00 | 88 | 1014.9 |
| 20260906071533 | 77 | 211 | 3.5 | 11.3 | 0.00 | 0.39 | 0.00 | 87 | 1014.9 |
| 20260906071019 | 77 | 230 | 2.6 | 7.8 | 0.00 | 0.39 | 0.00 | 87 | 1014.9 |
| 20260906070507 | 77 | 181 | 3.5 | 7.8 | 0.00 | 0.39 | 0.00 | 87 | 1014.9 |
| 20260906070017 | 77 | 201 | 3.5 | 7.0 | 0.00 | 0.39 | 0.00 | 87 | 1015.0 |
| 20260906065513 | 77 | 211 | 3.5 | 9.6 | 0.00 | 0.39 | 0.00 | 87 | 1015.1 |
| 20260906065014 | 77 | 193 | 2.6 | 9.6 | 0.00 | 0.39 | 0.00 | 87 | 1015.0 |
| 20260906064525 | 77 | 202 | 3.5 | 8.7 | 0.00 | 0.39 | 0.00 | 87 | 1014.9 |
| 20260906064016 | 77 | 218 | 2.6 | 7.0 | 0.00 | 0.39 | 0.00 | 86 | 1015.0 |
| 20260906063518 | 77 | 226 | 3.5 | 7.8 | 0.00 | 0.39 | 0.00 | 86 | 1015.1 |
| 20260906063030 | 77 | 205 | 2.6 | 7.8 | 0.00 | 0.39 | 0.00 | 86 | 1015.2 |
| 20260906062514 | 77 | 233 | 3.5 | 6.1 | 0.00 | 0.39 | 0.00 | 86 | 1015.1 |
| 20260906062017 | 77 | 235 | 2.6 | 7.0 | 0.00 | 0.39 | 0.00 | 86 | 1015.1 |
| 20260906061532 | 77 | 230 | 2.6 | 7.0 | 0.00 | 0.39 | 0.00 | 86 | 1015.1 |
| 20260906061018 | 77 | 225 | 2.6 | 7.0 | 0.00 | 0.39 | 0.00 | 86 | 1015.1 |
| 20260906060519 | 77 | 230 | 1.7 | 7.8 | 0.00 | 0.39 | 0.00 | 86 | 1015.1 |
| 20260906060015 | 77 | 230 | 2.6 | 7.8 | 0.00 | 0.39 | 0.00 | 85 | 1015.1 |
| 20260906055511 | 77 | 216 | 1.7 | 6.1 | 0.00 | 0.39 | 0.00 | 85 | 1015.1 |
| 20260906055012 | 77 | 268 | 0.9 | 7.0 | 0.00 | 0.39 | 0.00 | 85 | 1015.2 |
| 20260906054523 | 77 | 239 | 2.6 | 7.0 | 0.00 | 0.39 | 0.00 | 85 | 1015.1 |
| 20260906054014 | 77 | 198 | 1.7 | 6.1 | 0.00 | 0.39 | 0.00 | 85 | 1015.2 |
| 20260906053511 | 77 | 185 | 1.7 | 6.1 | 0.00 | 0.39 | 0.00 | 85 | 1015.3 |
| 20260906053035 | 77 | 221 | 0.9 | 6.1 | 0.00 | 0.39 | 0.00 | 84 | 1015.2 |
| 20260906052516 | 77 | 213 | 1.7 | 6.1 | 0.00 | 0.39 | 0.00 | 84 | 1015.2 |
| 20260906052014 | 77 | 231 | 0.9 | 7.8 | 0.00 | 0.39 | 0.00 | 84 | 1015.2 |
| 20260906051531 | 77 | 243 | 0.9 | 7.8 | 0.00 | 0.39 | 0.00 | 84 | 1015.1 |
| 20260906051006 | 77 | 234 | 1.7 | 6.1 | 0.00 | 0.39 | 0.00 | 83 | 1015.2 |
| 20260906050506 | 77 | 232 | 1.7 | 5.2 | 0.00 | 0.39 | 0.00 | 83 | 1015.2 |
| 20260906050013 | 77 | 223 | 0.9 | 5.2 | 0.00 | 0.39 | 0.00 | 83 | 1015.2 |
| 20260906045507 | 77 | 226 | 1.7 | 7.0 | 0.00 | 0.39 | 0.39 | 83 | 1015.2 |
| 20260906045007 | 77 | 217 | 1.7 | 7.0 | 0.00 | 0.39 | 0.39 | 83 | 1015.2 |
| 20260906044517 | 77 | 180 | 1.7 | 6.1 | 0.00 | 0.39 | 0.39 | 82 | 1015.2 |
| 20260906044012 | 77 | 237 | 1.7 | 5.2 | 0.00 | 0.39 | 0.39 | 82 | 1015.2 |
| 20260906043512 | 77 | 212 | 1.7 | 5.2 | 0.00 | 0.39 | 0.39 | 82 | 1015.3 |
| 20260906043038 | 77 | 234 | 0.9 | 7.0 | 0.00 | 0.39 | 0.39 | 82 | 1015.4 |
| 20260906042514 | 77 | 238 | 0.0 | 7.0 | 0.00 | 0.39 | 0.39 | 82 | 1015.5 |
| 20260906042013 | 77 | 208 | 0.0 | 4.3 | 0.00 | 0.39 | 0.39 | 81 | 1015.6 |
| 20260906041533 | 77 | 240 | 0.0 | 3.5 | 0.00 | 0.39 | 0.39 | 81 | 1015.6 |
| 20260906041016 | 77 | 68 | 0.0 | 3.5 | 0.00 | 0.39 | 0.39 | 81 | 1015.5 |
| 20260906040515 | 77 | 162 | 0.0 | 4.3 | 0.00 | 0.39 | 0.39 | 80 | 1015.7 |
| 20260906040036 | 77 | 216 | 0.0 | 4.3 | 0.00 | 0.39 | 0.39 | 80 | 1015.7 |
| 20260906035504 | 78 | 216 | 0.0 | 4.3 | 0.00 | 0.39 | 0.39 | 80 | 1015.7 |
| 20260906035007 | 78 | 225 | 0.9 | 3.5 | 0.00 | 0.39 | 0.39 | 79 | 1015.6 |
| 20260906034522 | 78 | 219 | 0.0 | 3.5 | 0.00 | 0.39 | 0.39 | 79 | 1015.6 |
| 20260906034007 | 78 | 235 | 0.0 | 3.5 | 0.00 | 0.39 | 0.39 | 79 | 1015.5 |
| 20260906033511 | 78 | 235 | 0.0 | 3.5 | 0.00 | 0.39 | 0.39 | 79 | 1015.4 |
| 20260906033025 | 78 | 223 | 0.0 | 5.2 | 0.00 | 0.39 | 0.39 | 78 | 1015.5 |
| 20260906032513 | 78 | 237 | 0.0 | 7.0 | 0.00 | 0.39 | 0.39 | 78 | 1015.3 |
| 20260906032015 | 78 | 233 | 0.0 | 7.0 | 0.00 | 0.39 | 0.39 | 77 | 1015.2 |
| 20260906031526 | 78 | 245 | 0.9 | 7.0 | 0.00 | 0.39 | 0.39 | 77 | 1015.2 |
| 20260906031014 | 79 | 239 | 0.9 | 7.0 | 0.00 | 0.39 | 0.39 | 77 | 1015.1 |
| 20260906030515 | 79 | 187 | 0.9 | 4.3 | 0.00 | 0.39 | 0.39 | 76 | 1015.1 |
| 20260906030030 | 79 | 226 | 0.9 | 6.1 | 0.00 | 0.39 | 0.39 | 76 | 1015.2 |
| 20260906025520 | 79 | 239 | 0.9 | 7.8 | 0.00 | 0.39 | 0.39 | 76 | 1015.3 |
| 20260906025017 | 79 | 234 | 1.7 | 7.8 | 0.00 | 0.39 | 0.39 | 75 | 1015.3 |
| 20260906024510 | 79 | 191 | 0.9 | 6.1 | 0.00 | 0.39 | 0.39 | 75 | 1015.2 |
| 20260906024009 | 80 | 76 | 1.7 | 6.1 | 0.00 | 0.39 | 0.39 | 74 | 1015.2 |
| 20260906023509 | 80 | 225 | 0.9 | 6.1 | 0.00 | 0.39 | 0.39 | 74 | 1015.3 |
| 20260906023014 | 80 | 249 | 1.7 | 7.0 | 0.00 | 0.39 | 0.39 | 74 | 1015.2 |
| 20260906022508 | 80 | 243 | 1.7 | 7.0 | 0.00 | 0.39 | 0.39 | 74 | 1015.1 |
| 20260906022011 | 80 | 240 | 0.9 | 6.1 | 0.00 | 0.39 | 0.39 | 73 | 1015.0 |
| 20260906021524 | 80 | 228 | 0.9 | 6.1 | 0.00 | 0.39 | 0.39 | 73 | 1015.0 |
| 20260906021011 | 80 | 236 | 0.9 | 6.1 | 0.00 | 0.39 | 0.39 | 72 | 1015.0 |
| 20260906020516 | 81 | 239 | 0.0 | 5.2 | 0.00 | 0.39 | 0.39 | 72 | 1015.0 |
| 20260906020026 | 81 | 194 | 0.9 | 8.7 | 0.00 | 0.39 | 0.39 | 72 | 1014.9 |
| 20260906015515 | 81 | 243 | 1.7 | 8.7 | 0.00 | 0.39 | 0.39 | 71 | 1014.9 |
| 20260906015018 | 81 | 139 | 0.9 | 3.5 | 0.00 | 0.39 | 0.39 | 71 | 1014.9 |
| 20260906014541 | 81 | 187 | 0.0 | 7.0 | 0.00 | 0.39 | 0.39 | 71 | 1014.9 |
| 20260906014017 | 81 | 244 | 0.0 | 7.0 | 0.00 | 0.39 | 0.39 | 70 | 1014.7 |
| 20260906013516 | 81 | 179 | 0.9 | 5.2 | 0.00 | 0.39 | 0.39 | 70 | 1014.6 |
| 20260906013013 | 82 | 243 | 0.0 | 6.1 | 0.00 | 0.39 | 0.39 | 70 | 1014.5 |
| 20260906012514 | 82 | 329 | 1.7 | 6.1 | 0.00 | 0.39 | 0.39 | 69 | 1014.6 |
| 20260906012012 | 82 | 233 | 0.9 | 6.1 | 0.00 | 0.39 | 0.39 | 69 | 1014.4 |
| 20260906011521 | 82 | 213 | 0.9 | 6.1 | 0.00 | 0.39 | 0.39 | 69 | 1014.2 |
| 20260906011017 | 82 | 190 | 0.9 | 6.1 | 0.00 | 0.39 | 0.39 | 68 | 1014.3 |
| 20260906010511 | 82 | 247 | 0.9 | 5.2 | 0.00 | 0.39 | 0.39 | 68 | 1014.4 |
| 20260906010027 | 83 | 155 | 0.0 | 6.1 | 0.00 | 0.39 | 0.39 | 67 | 1014.4 |
| 20260906005519 | 83 | 219 | 0.9 | 6.1 | 0.00 | 0.39 | 0.39 | 66 | 1014.4 |
| 20260906005013 | 83 | 209 | 1.7 | 6.1 | 0.00 | 0.39 | 0.39 | 66 | 1014.4 |
| 20260906004530 | 83 | 220 | 0.9 | 6.1 | 0.00 | 0.39 | 0.39 | 65 | 1014.3 |
| 20260906004016 | 84 | 207 | 0.0 | 7.0 | 0.00 | 0.39 | 0.39 | 65 | 1014.2 |
| 20260906003520 | 84 | 215 | 2.6 | 7.0 | 0.00 | 0.39 | 0.39 | 65 | 1014.2 |
| 20260906003030 | 84 | 154 | 1.7 | 6.1 | 0.00 | 0.39 | 0.39 | 64 | 1014.1 |
| 20260906002518 | 85 | 178 | 0.9 | 6.1 | 0.00 | 0.39 | 0.39 | 63 | 1014.1 |
| 20260906002008 | 85 | 226 | 0.9 | 7.0 | 0.00 | 0.39 | 0.39 | 63 | 1014.2 |
| 20260906001514 | 85 | 215 | 2.6 | 9.6 | 0.00 | 0.39 | 0.39 | 62 | 1014.0 |
| 20260906001011 | 86 | 224 | 2.6 | 9.6 | 0.00 | 0.39 | 0.39 | 61 | 1014.1 |
| 20260906000515 | 86 | 209 | 2.6 | 7.8 | 0.00 | 0.39 | 0.39 | 61 | 1014.1 |
| 20260906000023 | 86 | 222 | 1.7 | 7.8 | 0.00 | 0.39 | 0.39 | 60 | 1014.1 |
| 20260905235516 | 86 | 243 | 1.7 | 10.4 | 0.00 | 0.39 | 0.39 | 60 | 1014.0 |
| 20260905235016 | 87 | 230 | 3.5 | 10.4 | 0.00 | 0.39 | 0.39 | 59 | 1014.0 |
| 20260905234528 | 87 | 184 | 0.9 | 10.4 | 0.00 | 0.39 | 0.39 | 58 | 1013.9 |
| 20260905234017 | 87 | 226 | 2.6 | 10.4 | 0.00 | 0.39 | 0.39 | 58 | 1014.0 |
| 20260905233514 | 88 | 238 | 2.6 | 9.6 | 0.00 | 0.39 | 0.39 | 57 | 1014.1 |
| 20260905233031 | 88 | 212 | 2.6 | 9.6 | 0.00 | 0.39 | 0.39 | 57 | 1014.0 |
| 20260905232517 | 89 | 226 | 3.5 | 8.7 | 0.00 | 0.39 | 0.39 | 56 | 1013.8 |
| 20260905232016 | 89 | 228 | 3.5 | 8.7 | 0.00 | 0.39 | 0.39 | 55 | 1013.8 |
| 20260905231535 | 89 | 228 | 2.6 | 8.7 | 0.00 | 0.39 | 0.39 | 55 | 1013.8 |
| 20260905231007 | 88 | 228 | 2.6 | 8.7 | 0.00 | 0.39 | 0.39 | 54 | 1013.7 |
| 20260905230511 | 89 | 226 | 4.3 | 9.6 | 0.00 | 0.39 | 0.39 | 55 | 1013.7 |
| 20260905230018 | 89 | 227 | 2.6 | 10.4 | 0.00 | 0.39 | 0.39 | 55 | 1013.7 |
| 20260905225514 | 89 | 209 | 3.5 | 10.4 | 0.00 | 0.39 | 0.39 | 54 | 1013.7 |
| 20260905225014 | 89 | 216 | 3.5 | 9.6 | 0.00 | 0.39 | 0.39 | 54 | 1013.8 |
| 20260905224534 | 89 | 219 | 3.5 | 9.6 | 0.00 | 0.39 | 0.39 | 53 | 1013.9 |
| 20260905224016 | 89 | 219 | 3.5 | 10.4 | 0.00 | 0.39 | 0.39 | 52 | 1013.9 |
| 20260905223519 | 89 | 207 | 2.6 | 11.3 | 0.00 | 0.39 | 0.39 | 52 | 1014.0 |
| 20260905223034 | 89 | 226 | 4.3 | 11.3 | 0.00 | 0.39 | 0.39 | 51 | 1013.9 |
| 20260905222518 | 90 | 225 | 4.3 | 9.6 | 0.00 | 0.39 | 0.39 | 51 | 1013.9 |
| 20260905222016 | 90 | 220 | 3.5 | 9.6 | 0.00 | 0.39 | 0.39 | 52 | 1013.9 |
| 20260905221531 | 90 | 218 | 4.3 | 9.6 | 0.00 | 0.39 | 0.39 | 52 | 1013.8 |
| 20260905221019 | 90 | 226 | 3.5 | 8.7 | 0.00 | 0.39 | 0.39 | 51 | 1013.8 |
| 20260905220523 | 90 | 206 | 1.7 | 7.8 | 0.00 | 0.39 | 0.39 | 53 | 1013.7 |
| 20260905220031 | 90 | 187 | 3.5 | 7.8 | 0.00 | 0.39 | 0.39 | 51 | 1013.7 |
| 20260905215512 | 89 | 226 | 2.6 | 9.6 | 0.00 | 0.39 | 0.39 | 53 | 1013.7 |
| 20260905215017 | 90 | 231 | 1.7 | 9.6 | 0.00 | 0.39 | 0.39 | 53 | 1013.7 |
| 20260905214524 | 90 | 220 | 0.9 | 10.4 | 0.00 | 0.39 | 0.39 | 54 | 1013.6 |
| 20260905214013 | 90 | 225 | 3.5 | 10.4 | 0.00 | 0.39 | 0.39 | 54 | 1013.6 |
| 20260905213516 | 90 | 222 | 4.3 | 10.4 | 0.00 | 0.39 | 0.39 | 53 | 1013.6 |
| 20260905213029 | 90 | 213 | 2.6 | 7.8 | 0.00 | 0.39 | 0.39 | 54 | 1013.6 |
| 20260905212517 | 90 | 191 | 2.6 | 7.0 | 0.00 | 0.39 | 0.39 | 54 | 1013.6 |
| 20260905212013 | 90 | 247 | 1.7 | 7.8 | 0.00 | 0.39 | 0.39 | 55 | 1013.7 |
| 20260905211531 | 90 | 236 | 0.9 | 7.8 | 0.00 | 0.39 | 0.39 | 55 | 1013.6 |
| 20260905211021 | 90 | 218 | 1.7 | 7.8 | 0.00 | 0.39 | 0.39 | 56 | 1013.7 |
| 20260905210516 | 90 | 221 | 3.5 | 9.6 | 0.00 | 0.39 | 0.39 | 56 | 1013.7 |
| 20260905210010 | 90 | 251 | 4.3 | 9.6 | 0.00 | 0.39 | 0.39 | 56 | 1013.7 |
| 20260905205508 | 89 | 230 | 1.7 | 7.8 | 0.00 | 0.39 | 0.39 | 56 | 1013.6 |
| 20260905205013 | 89 | 225 | 3.5 | 7.8 | 0.00 | 0.39 | 0.39 | 56 | 1013.6 |
| 20260905204519 | 89 | 224 | 2.6 | 9.6 | 0.00 | 0.39 | 0.39 | 57 | 1013.6 |
| 20260905204013 | 89 | 234 | 5.2 | 9.6 | 0.00 | 0.39 | 0.39 | 56 | 1013.6 |
| 20260905203516 | 89 | 234 | 2.6 | 7.8 | 0.00 | 0.39 | 0.39 | 56 | 1013.6 |
| 20260905203023 | 89 | 230 | 0.0 | 7.0 | 0.00 | 0.39 | 0.39 | 58 | 1013.5 |
| 20260905202503 | 89 | 209 | 0.9 | 7.0 | 0.00 | 0.39 | 0.39 | 57 | 1013.6 |
| 20260905202003 | 89 | 217 | 2.6 | 6.1 | 0.00 | 0.39 | 0.39 | 56 | 1013.5 |
| 20260905201504 | 89 | 272 | 1.7 | 8.7 | 0.00 | 0.39 | 0.39 | 58 | 1013.4 |
| 20260905201003 | 88 | 236 | 1.7 | 8.7 | 0.00 | 0.39 | 0.39 | 57 | 1013.4 |
| 20260905200504 | 88 | 232 | 1.7 | 7.0 | 0.00 | 0.39 | 0.39 | 57 | 1013.5 |
| 20260905200011 | 88 | 239 | 0.9 | 3.5 | 0.00 | 0.39 | 0.39 | 58 | 1013.4 |
| 20260905195507 | 87 | 185 | 0.0 | 6.1 | 0.00 | 0.39 | 0.39 | 59 | 1013.3 |
| 20260905195011 | 87 | 209 | 1.7 | 6.1 | 0.00 | 0.39 | 0.39 | 56 | 1013.5 |
| 20260905194513 | 87 | 211 | 0.9 | 7.0 | 0.00 | 0.39 | 0.39 | 57 | 1013.6 |
| 20260905194012 | 87 | 229 | 2.6 | 8.7 | 0.00 | 0.39 | 0.39 | 57 | 1013.6 |